Regional Weather Roundup
Issued by NWS State College, PA

Home | Current Version | Previous Version | Graphics & Text | Print | Product List | Glossary On
Versions: 1 2 3 4 5 6 7 8 9 10 11 12 13 14 15 16 17 18 19 20 21 22 23 24 25 26 27 28 29 30 31 32 33 34 35 36 37 38 39 40 41 42 43 44 45 46 47 48 49 50
000
ASUS41 KCTP 251510
RWRCTP

REGIONAL WEATHER ROUNDUP
NATIONAL WEATHER SERVICE STATE COLLEGE PA
1100 AM EDT SAT OCT 25 2014

Note: "fair" indicates few or no clouds below 12,000 feet with no
significant weather and/or obstructions to visibility.

* = STATION THAT DOES NOT REPORT PRECIPITATION /E.G. RAIN...SNOW...ETC/
    THUNDER OR FOG.

PAZ002>004-007>009-013>016-020>023-029>032-251600-
WESTERN PENNSYLVANIA

CITY           SKY/WX    TMP DP  RH WIND       PRES   REMARKS
ERIE           CLOUDY    59  47  64 S14       29.80F
MEADVILLE      CLOUDY    54  45  71 SW7       29.86F
FRANKLIN*      MOSUNNY   55  45  67 SW9       29.87F
NEW CASTLE       N/A     54  47  77 CALM      29.89F
BEAVER COUNTY  CLOUDY    52  45  76 SW7       29.91F
BUTLER*        CLOUDY    54  45  71 SW9       29.93F
PITTSBURGH INT CLOUDY    54  44  69 SW9       29.92F
PITTSBURGH     CLOUDY    56  42  59 SW10      29.93F
INDIANA*       PTSUNNY   55  45  67 W10G17    29.95F
LATROBE        PTSUNNY   55  45  67 SW18      29.96F
WASHINGTON CO* CLOUDY    55  45  67 SW9       29.97F
$$

PAZ004>006-010>012-017>019-024>028-033>037-041-042-045-046-049>053-251600-
CENTRAL PENNSYLVANIA

CITY           SKY/WX    TMP DP  RH WIND       PRES   REMARKS
BRADFORD       PTSUNNY   54  43  66 VRB7      29.84F
DUBOIS         PTSUNNY   53  45  74 W14       29.87F
CLEARFIELD     SUNNY     55  42  61 S10       29.88F
JOHNSTOWN      CLOUDY    54  42  64 W12       29.92F
ALTOONA        PTSUNNY   59  43  55 W9        29.91F
STATE COLLEGE  SUNNY     57  43  58 SW12      29.88F
WILLIAMSPORT   MOSUNNY   54  41  61 W6        29.86F
SELINSGROVE    PTSUNNY   57  43  59 S5        29.88F
FT INDIANTOWN  SUNNY     62  44  53 SW9       29.88F
CAPITAL CITY   SUNNY     62  43  49 W8        29.90F
HARRISBURG     MOSUNNY   59  43  55 W5        29.89F
YORK           SUNNY     63  41  44 W6        29.90F
$$

PAZ038>040-043-044-047-048-054-055-060>062-067>071-251600-
EASTERN PENNSYLVANIA

CITY           SKY/WX    TMP DP  RH WIND       PRES   REMARKS
SCRANTON       CLOUDY    54  40  59 VRB3      29.85F
MOUNT POCONO   CLOUDY    53  38  56 W12G17    29.84F
ALLENTOWN      SUNNY     62  42  47 VRB3      29.86F
QUAKERTOWN*    SUNNY     63  43  48 NW7       29.88F
READING        SUNNY     62  41  46 W9        29.87F
LANCASTER      SUNNY     59  42  53 W13       29.89F
COATESVILLE    SUNNY     59  41  51 W12       29.90F
POTTSTOWN      SUNNY     60  41  49 NW9       29.90F
BLUE BELL      NOT AVBL
DOYLESTOWN     SUNNY     59  41  51 W8        29.87F
WILLOW GROVE   NOT AVBL
NORTH PHILA    SUNNY     63  40  42 W10       29.90F
PHILADELPHIA   MOSUNNY   62  41  46 W10       29.90F
$$



USA.gov is the U.S. government's official web portal to all federal, state and local government web resources and services.